Wind_Speed
4 3 4 6 5 5 5 5 6 5 4 3 2 1 3 3 4 4 3 4 11 9 9 12 12 12 10 11 13 13 13 13 13 14 13 14 14 14 14 13 14 15 14 19 24 27 29 30 31 32 32 33 33 33 35 34 35 34 33 32 32 31 31 30 29 28 27 27 26 25 25 24 23 21 20 20 21 20 20 20 19 19 17 16 15 13
3 5 6 6 6 6 5 5 5 4 4 3 2 3 4 3 5 6 3 4 8 7 8 11 11 12 11 11 13 14 15 15 16 17 16 16 15 13 14 15 14 12 12 16 20 23 27 28 30 31 31 33 32 32 34 35 35 35 34 34 33 33 32 31 31 30 28 28 28 26 26 26 24 22 22 22 22 21 22 22 21 21 19 17 16 15
3 5 6 6 5 4 4 3 4 4 5 4 3 2 3 3 2 5 6 5 7 6 6 9 11 10 8 9 12 16 17 15 16 18 17 17 16 14 15 15 13 12 12 15 17 21 25 27 30 31 31 33 34 33 34 35 36 35 35 35 34 34 34 33 32 31 30 29 28 27 26 26 24 23 23 21 21 22 24 23 22 22 20 19 18 16
4 5 7 7 4 3 5 5 3 3 4 4 4 3 3 2 1 3 5 2 3 5 6 5 5 3 3 6 9 12 13 10 11 14 13 14 15 16 16 15 14 15 15 16 16 18 22 26 28 30 31 33 33 33 34 36 36 35 36 36 35 35 35 35 33 32 31 29 28 27 24 25 24 23 23 22 22 24 24 23 22 21 21 20 18 17
5 7 6 5 4 5 5 6 3 3 4 4 6 6 4 3 4 6 4 4 2 5 4 2 2 2 4 8 8 8 9 8 9 11 12 12 13 13 13 13 13 14 15 16 17 16 19 23 27 30 31 33 33 33 35 37 36 36 36 37 36 35 35 35 34 33 31 29 28 26 22 22 22 21 23 24 24 25 25 22 21 20 20 20 19 18
7 7 3 4 6 5 4 6 4 5 3 5 7 8 7 5 7 8 4 3 4 5 3 3 3 4 3 8 8 6 8 9 9 11 13 12 12 12 12 13 13 13 13 14 16 16 17 21 26 29 31 32 33 34 37 38 38 36 36 37 36 35 35 35 35 33 31 29 30 28 24 24 23 20 23 27 27 26 26 24 21 20 20 20 19 18
5 5 5 6 7 6 6 6 5 6 3 5 6 7 8 8 8 8 5 1 1 4 4 1 4 2 3 5 7 7 10 11 9 11 13 11 12 13 12 13 13 13 13 13 14 15 16 19 24 26 30 33 34 35 37 37 38 37 36 37 37 36 36 36 35 34 33 31 31 32 29 27 27 24 24 28 29 28 27 25 23 22 21 20 19 19
3 4 5 6 6 6 6 6 7 7 5 6 4 6 7 8 8 8 6 4 4 3 2 3 4 2 3 5 8 8 9 9 9 11 12 12 13 14 13 14 14 15 14 13 14 15 16 19 24 26 30 34 35 35 36 36 37 37 37 38 38 37 36 36 36 35 35 34 33 33 32 29 29 28 26 26 28 27 26 26 25 23 22 21 20 19
2 4 7 7 6 5 6 9 9 8 6 10 5 6 6 7 7 6 5 4 2 2 1 4 2 3 4 3 6 8 9 10 13 14 14 15 16 15 15 15 15 15 15 14 15 16 17 20 25 28 30 32 34 35 36 37 37 37 37 38 37 37 37 36 36 36 36 35 34 33 33 31 30 29 26 24 25 25 26 26 26 24 23 21 21 20
2 4 7 7 6 6 8 12 9 9 9 9 4 4 3 3 2 2 4 4 1 2 5 7 2 3 5 3 5 7 8 12 15 15 14 15 16 16 14 14 14 13 13 15 15 16 19 23 26 28 30 31 33 35 36 37 36 36 36 37 38 37 37 37 37 37 37 36 35 34 34 32 31 30 26 23 23 24 26 27 27 25 24 23 22 21
4 4 3 4 4 7 10 11 9 14 14 6 1 3 2 2 3 2 2 3 3 1 6 6 3 4 3 4 4 7 11 15 14 12 12 14 16 16 14 13 14 13 13 13 14 15 20 25 26 28 29 31 33 33 35 36 36 36 37 37 39 39 38 37 37 38 38 37 36 35 35 33 32 31 27 24 24 25 26 28 28 27 25 24 23 21
6 4 0 2 1 1 3 6 5 11 12 4 2 2 2 1 2 3 3 3 4 3 6 7 3 4 1 5 5 9 13 14 13 13 15 18 17 15 14 14 14 14 13 13 13 14 17 20 22 26 29 30 32 32 33 35 35 36 37 38 38 38 38 38 38 38 38 37 37 36 36 34 34 33 30 27 26 27 28 29 29 28 26 25 24 22
3 1 3 4 3 7 4 3 3 1 5 4 2 3 3 1 1 1 2 1 3 3 5 6 2 2 3 5 6 11 13 11 12 13 14 15 15 14 14 14 13 12 13 13 13 13 14 15 18 24 28 29 31 33 34 35 36 36 37 38 38 38 39 39 39 39 39 38 38 37 37 36 34 34 33 30 28 28 30 30 29 29 27 26 26 25
1 2 6 6 4 7 5 1 1 1 4 6 5 4 4 2 2 3 3 1 2 3 3 5 3 1 3 4 5 6 11 12 13 14 14 13 13 14 15 14 13 13 14 13 13 14 14 15 19 24 27 30 31 33 35 36 36 36 36 38 39 39 40 40 39 40 40 39 39 38 37 37 35 34 34 33 30 29 30 30 30 29 27 26 27 27
2 2 4 5 2 5 4 1 3 3 3 4 5 5 5 5 5 4 4 3 3 2 2 2 2 2 2 2 8 8 7 6 5 8 9 11 12 12 12 12 13 13 14 13 14 15 15 16 22 25 27 30 32 34 35 35 36 37 36 38 39 39 40 40 40 40 41 40 40 38 38 37 37 35 35 35 33 31 31 30 30 29 27 26 26 26
3 2 4 2 3 3 6 5 3 3 2 2 2 6 3 3 4 3 3 5 4 2 1 1 2 2 4 1 9 12 12 12 11 11 9 7 9 9 10 12 14 13 13 14 14 16 17 18 23 26 27 30 32 34 35 36 37 37 37 38 40 40 41 41 40 41 42 42 40 39 39 39 38 36 35 35 34 32 32 31 30 30 28 27 26 25
2 2 5 5 4 5 7 6 2 4 2 2 3 2 2 2 4 4 1 1 4 4 1 1 0 4 2 3 12 15 15 16 16 15 14 12 9 7 11 12 13 15 15 15 16 16 17 18 22 26 28 30 31 34 36 37 39 39 38 38 39 39 40 41 41 41 42 41 40 40 40 40 39 38 36 36 36 35 33 32 32 31 29 28 27 26
2 2 4 6 4 7 8 5 2 8 4 2 2 3 4 1 3 3 1 2 5 3 2 1 4 4 4 2 8 15 17 18 18 17 15 15 12 6 10 12 13 15 16 16 16 16 15 16 21 25 28 31 33 35 37 38 39 40 40 39 39 39 39 40 41 41 41 40 40 40 41 41 41 40 39 37 37 37 35 34 34 33 32 30 29 28
2 1 4 5 2 7 8 5 3 9 9 3 2 3 3 3 2 1 2 2 2 2 2 2 3 3 4 3 7 13 14 15 16 16 16 17 17 12 9 12 14 14 14 14 14 14 14 15 21 26 28 31 34 35 37 38 37 38 39 39 40 41 41 42 41 40 40 40 40 40 41 42 42 42 40 39 38 37 36 36 36 35 35 33 31 30
2 2 3 4 5 5 6 6 4 7 9 5 3 5 4 2 2 1 2 3 3 3 3 1 3 2 2 5 7 9 10 12 14 14 14 16 17 16 12 8 13 14 13 14 14 14 15 17 23 28 30 31 33 34 35 36 36 37 38 38 39 40 40 40 41 41 40 39 39 39 39 40 41 41 40 38 37 37 38 39 38 37 36 35 34 32
2 3 1 5 6 4 2 4 4 4 5 6 7 7 6 4 2 2 1 1 3 3 3 3 3 2 4 5 7 8 9 10 11 12 12 14 16 17 18 13 7 14 14 14 15 15 16 17 22 28 30 30 31 31 33 34 35 36 37 37 38 38 38 39 40 40 39 39 39 38 38 39 40 40 39 37 36 37 39 40 40 39 38 36 35 34
2 2 1 3 5 4 1 4 5 5 6 7 6 5 5 5 4 2 2 2 2 3 2 4 4 3 4 4 6 6 7 7 9 11 10 13 17 18 19 19 11 7 12 13 14 14 14 16 20 26 28 28 29 29 31 33 34 35 35 37 38 37 37 39 39 40 39 39 39 39 38 38 39 39 38 37 36 36 38 39 40 40 39 38 36 35
1 2 2 2 2 1 2 3 7 7 6 8 8 6 4 5 5 2 1 3 4 3 1 3 4 4 4 3 5 5 5 6 8 10 10 12 15 17 19 21 19 10 3 4 6 8 9 12 17 22 25 27 28 29 31 33 34 35 36 36 37 37 38 39 39 39 39 38 38 38 38 37 38 38 38 37 37 36 37 38 39 40 40 39 38 37
2 3 3 3 3 4 3 1 6 9 7 6 6 7 6 5 4 1 3 0 2 4 4 2 3 3 4 4 5 5 5 6 8 9 11 11 12 16 19 20 20 18 15 11 7 3 2 5 11 15 19 24 26 28 31 33 33 34 36 36 36 37 38 39 39 38 38 38 38 37 37 37 37 37 38 38 38 38 37 37 37 37 39 40 39 38
2 2 3 3 3 4 4 4 5 8 8 4 4 6 6 8 9 4 1 2 3 3 3 1 3 3 5 4 6 7 8 8 10 10 10 11 12 13 16 17 18 18 19 18 15 13 10 6 3 4 11 18 23 26 29 32 33 34 34 35 36 37 38 38 38 37 37 37 36 36 37 38 37 37 38 39 40 40 39 37 35 35 36 38 38 39
2 3 3 4 3 2 1 1 3 4 5 3 4 6 6 8 10 5 3 3 2 2 3 2 2 5 7 6 9 11 11 11 12 12 11 11 12 12 13 15 15 16 18 19 18 16 14 12 12 12 10 7 12 20 25 27 30 32 33 35 35 36 37 37 37 36 36 36 36 36 37 38 38 39 39 40 40 41 40 38 36 35 35 36 37 38
3 4 3 6 5 3 4 2 3 3 3 3 5 7 6 6 6 4 3 2 0 3 3 2 1 6 9 10 12 12 13 13 13 14 13 12 13 13 12 13 14 14 15 16 17 16 16 16 15 17 20 19 13 6 13 22 26 27 28 31 33 34 34 36 36 36 36 36 36 37 37 38 39 40 39 40 40 40 40 39 38 37 36 36 36 37
4 4 4 6 4 3 4 4 4 2 1 2 5 6 5 6 5 4 2 1 1 3 3 4 1 5 8 10 12 11 11 11 12 13 13 12 12 12 12 14 16 15 15 16 17 17 17 17 16 17 21 23 23 20 12 6 16 23 26 27 29 31 32 33 34 35 35 36 36 37 38 39 39 39 39 39 39 39 39 39 39 39 38 36 36 36
5 1 1 4 3 1 2 3 3 2 1 2 3 3 5 6 5 2 3 4 2 2 4 6 4 4 5 9 11 10 9 10 10 10 10 11 12 12 13 16 17 17 17 17 17 16 16 15 14 16 20 22 23 25 24 19 10 9 21 27 27 27 30 32 32 33 34 34 36 37 38 38 37 38 38 38 38 39 40 40 39 39 38 37 36 36
4 0 0 3 3 1 2 3 3 4 3 3 2 3 3 4 5 5 5 6 5 6 7 7 4 1 3 7 8 7 7 7 7 7 10 13 14 14 15 15 16 16 16 16 15 14 14 14 14 16 20 23 24 24 24 24 23 17 8 19 27 27 28 30 31 32 33 34 36 36 36 36 36 36 36 37 38 40 40 40 39 38 38 38 38 37
3 2 2 4 3 3 3 2 4 4 4 4 4 5 5 5 6 5 5 6 5 6 5 3 2 2 2 6 7 6 5 6 8 9 10 12 13 14 15 14 14 15 15 15 15 14 13 13 14 17 19 21 23 24 23 23 23 23 19 8 18 27 29 30 32 34 34 35 36 35 35 36 36 35 36 38 39 39 39 40 39 38 38 38 38 38
3 1 2 5 4 4 4 5 7 6 4 3 2 2 2 2 2 2 2 2 2 4 4 1 1 1 3 6 6 6 7 8 9 10 9 9 10 13 14 13 13 14 15 15 15 14 15 15 14 16 18 20 22 23 24 25 24 24 25 21 11 16 27 32 33 34 36 36 36 36 36 36 36 36 37 38 39 40 40 39 38 37 37 37 38 37
2 2 1 3 2 4 5 6 8 8 5 2 1 1 2 2 0 1 2 3 2 1 2 1 1 0 3 5 6 7 8 7 7 8 8 8 9 10 11 11 12 12 13 13 14 13 13 14 14 16 18 19 21 22 23 23 23 24 25 24 21 12 17 30 33 34 35 35 35 35 36 35 35 36 37 38 39 39 38 37 37 38 38 38 37 36
2 4 1 2 2 3 6 6 7 6 4 3 3 0 3 3 2 2 1 2 3 3 1 2 2 3 4 4 5 6 6 5 5 6 7 8 8 8 9 9 10 11 12 11 11 11 12 14 16 19 22 22 23 24 22 22 24 25 25 24 22 18 10 17 26 30 33 34 34 35 35 35 36 37 38 38 37 36 36 36 38 39 38 37 36 36
3 3 1 1 2 2 4 5 5 3 4 4 5 3 3 3 3 3 2 2 2 3 3 3 3 4 4 3 4 5 6 3 3 6 9 9 9 9 9 9 9 10 10 10 10 10 13 16 19 21 24 26 29 28 25 25 27 27 26 25 21 19 16 9 12 20 26 31 33 34 35 36 37 37 38 38 37 36 36 37 38 38 38 37 37 37
3 2 1 1 1 0 2 2 1 4 5 7 8 6 2 3 3 3 0 3 2 2 2 1 1 3 3 4 3 3 7 6 1 4 8 9 10 10 9 9 9 8 7 9 10 11 14 17 19 21 23 25 29 28 26 27 29 27 25 23 19 18 18 14 8 8 15 23 28 32 34 36 37 37 37 37 36 36 36 37 39 39 38 37 37 37
4 3 1 1 1 1 1 2 2 4 7 7 5 3 2 2 2 1 2 4 3 1 1 1 1 3 3 4 5 5 7 5 3 2 5 9 10 10 10 10 10 10 11 12 12 13 15 17 19 21 22 25 27 26 26 27 28 27 25 21 17 18 18 16 13 9 7 11 17 24 30 33 35 36 36 35 35 36 37 38 38 38 37 35 35 36
4 3 3 2 1 2 1 2 3 3 4 3 2 3 4 3 3 2 2 3 2 2 2 1 2 3 3 3 6 7 6 2 3 3 4 9 9 9 10 12 13 14 15 16 16 16 16 17 18 19 21 24 25 26 27 27 26 26 24 19 16 17 17 16 15 14 12 10 10 14 20 25 29 31 33 34 35 36 37 37 37 36 36 36 36 36
6 3 3 3 1 1 2 2 2 2 4 4 3 4 5 4 4 3 3 2 1 2 3 2 2 4 3 3 5 5 5 2 2 3 5 9 9 8 9 11 14 16 17 17 18 18 18 18 18 18 20 22 24 27 27 26 24 22 20 19 18 17 16 15 15 15 15 14 12 11 13 18 24 27 29 31 34 37 36 36 36 35 35 36 36 36
5 3 3 3 1 2 3 3 3 2 3 4 3 5 6 4 3 2 2 2 2 4 4 3 4 4 3 3 4 3 2 2 4 5 6 8 9 9 10 11 14 16 18 18 19 19 19 19 18 18 19 21 24 26 27 25 23 20 18 19 19 17 17 17 17 17 18 18 16 14 12 13 19 25 28 29 31 33 33 34 34 34 34 35 36 35
2 2 1 2 3 4 4 3 3 3 3 3 3 5 6 3 1 1 3 2 2 5 5 3 4 5 3 2 1 0 2 4 6 7 7 8 9 9 11 14 16 17 19 20 21 20 19 20 19 19 20 21 23 24 24 24 24 23 21 19 18 18 19 19 19 19 19 19 19 18 16 14 15 20 27 30 31 30 31 33 33 34 35 35 34 34
0 0 1 2 2 2 3 3 4 4 2 2 3 4 3 1 2 3 3 1 2 5 5 3 4 5 4 3 3 3 4 6 7 8 8 8 8 8 10 12 15 17 20 22 22 21 20 20 20 20 22 24 24 23 22 21 21 22 23 21 19 21 22 22 21 20 20 20 20 20 19 17 16 17 22 28 31 31 32 33 33 34 35 34 33 34
3 2 1 2 3 2 2 3 3 3 2 2 1 2 1 3 2 2 3 2 2 3 4 3 4 4 5 6 5 5 5 6 8 9 8 7 8 9 11 12 13 15 19 21 22 22 21 21 21 20 22 25 26 24 22 20 19 20 21 22 22 24 24 23 22 21 20 21 21 20 20 19 18 17 19 24 29 32 33 33 33 34 34 34 34 33
3 3 2 3 2 3 3 4 4 3 4 3 1 1 3 3 2 1 2 3 2 3 3 3 4 5 6 7 8 7 6 6 7 8 9 8 7 9 12 14 14 15 17 19 22 23 22 22 23 23 24 25 26 25 22 21 20 19 20 23 25 26 24 23 22 20 20 21 21 20 19 18 17 17 18 21 25 31 33 33 33 34 34 34 34 33
4 4 4 3 2 3 4 6 5 3 3 3 3 4 5 5 3 2 2 3 3 3 3 3 5 6 6 7 9 9 6 5 6 7 8 9 8 8 12 15 17 17 18 19 21 22 23 24 26 26 26 26 27 26 24 22 21 21 22 25 26 26 25 23 21 19 18 20 20 20 19 18 17 18 20 21 23 28 32 32 32 32 33 33 33 32
4 3 3 1 2 3 4 6 5 4 4 4 4 4 4 4 4 3 2 3 3 4 4 4 5 6 6 6 8 9 8 7 6 7 8 9 9 10 13 16 18 19 19 19 20 21 23 26 27 28 27 28 28 27 26 25 24 23 26 27 27 25 24 22 20 18 17 17 19 19 19 19 20 21 22 22 24 27 31 32 32 32 32 32 32 32
2 3 3 2 1 2 4 4 3 4 4 4 4 4 4 4 4 3 3 4 5 5 5 6 6 6 6 6 7 10 11 10 8 8 8 8 9 10 12 14 18 20 21 20 20 22 23 23 25 26 27 29 30 28 27 28 28 28 29 29 27 26 23 21 19 19 17 17 18 18 18 19 21 22 23 23 24 27 30 32 33 32 32 32 32 32
1 3 3 3 4 3 5 6 5 4 4 4 4 5 5 4 5 5 4 5 5 5 6 7 7 6 5 6 7 10 13 12 10 9 8 8 9 10 11 14 18 21 23 23 22 22 21 21 23 25 27 29 31 30 28 28 30 31 31 30 28 26 23 21 20 20 19 18 18 17 17 19 21 22 23 24 24 26 29 32 33 33 34 35 36 34
3 4 3 3 3 3 7 7 5 5 6 6 5 6 6 5 5 6 6 5 6 6 7 8 9 8 7 8 8 9 13 14 11 10 10 9 9 11 13 16 19 22 25 25 23 22 22 21 23 25 27 29 31 31 30 29 30 31 32 31 29 27 24 21 21 21 20 19 20 18 18 19 20 21 23 24 25 27 30 33 35 36 38 40 43 42
4 4 3 2 2 4 7 6 4 2 5 5 5 7 7 7 6 6 6 6 6 7 7 8 10 11 11 12 11 10 12 14 13 11 11 10 11 14 17 18 19 22 26 26 24 23 23 23 24 25 27 29 30 30 30 31 31 31 31 31 29 27 24 22 21 21 20 18 19 19 18 18 20 23 24 24 25 26 29 33 37 40 41 42 45 48
6 6 6 5 5 6 8 7 6 4 5 6 6 7 7 6 5 6 7 7 7 7 7 8 10 12 12 14 15 14 12 13 16 15 12 11 15 19 21 20 20 23 26 28 25 23 23 24 24 24 25 27 29 29 30 33 33 32 32 31 29 27 26 24 23 22 20 18 18 19 19 20 23 25 26 26 25 26 27 30 34 39 42 43 43 45
Wind_Direction
153 172 217 215 212 210 208 190 189 190 177 185 195 226 237 259 286 251 248 210 182 193 224 214 217 219 202 184 182 183 186 188 186 186 188 188 189 191 190 189 189 190 191 185 183 183 184 186 185 184 185 186 188 190 190 189 189 190 190 192 194 195 195 195 198 201 204 206 205 206 208 209 210 209 214 218 220 224 220 213 211 208 208 209 208 207
145 197 228 224 206 211 217 195 195 208 222 244 234 267 278 236 261 274 265 224 190 192 235 224 222 225 208 188 181 178 186 191 187 187 189 188 189 192 193 193 191 189 186 184 186 184 183 184 184 184 184 185 187 189 190 190 190 191 191 192 194 195 195 196 198 201 204 206 205 203 205 207 208 210 214 218 221 221 215 212 212 212 213 213 211 211
199 226 238 237 210 208 252 223 197 222 235 244 230 237 273 238 268 292 274 241 193 190 246 231 220 229 208 188 187 183 189 194 190 190 189 186 187 191 195 194 190 185 183 186 189 187 185 183 182 182 184 186 187 188 189 191 191 191 191 193 195 195 196 198 200 203 205 206 206 204 204 205 206 210 214 218 217 212 211 213 216 217 218 215 212 212
204 245 238 236 217 193 256 262 215 234 254 239 227 224 235 205 113 287 283 302 179 207 252 227 209 232 157 172 204 197 192 192 191 194 192 191 193 195 195 193 189 186 185 187 189 189 187 184 182 182 184 186 186 187 188 191 191 191 192 194 195 196 198 198 200 204 206 206 205 205 206 207 207 210 212 215 212 209 211 215 218 219 218 216 213 211
230 253 229 222 228 203 235 266 232 216 259 249 230 224 220 202 194 224 270 357 344 266 266 126 89 321 158 173 203 200 195 195 189 192 195 199 201 200 198 196 193 190 188 188 189 190 189 187 184 183 184 185 186 187 189 191 191 192 193 194 196 197 198 198 198 202 205 204 202 202 202 202 203 207 209 209 209 210 212 214 215 215 216 217 214 212
250 249 195 193 231 215 220 256 230 185 231 273 247 222 207 216 227 235 267 351 349 306 273 124 98 298 232 186 191 179 193 201 193 197 199 199 201 201 200 199 198 195 191 190 190 191 190 188 186 184 184 185 187 190 190 191 192 193 194 195 196 197 197 197 197 200 202 201 200 199 195 192 193 199 205 208 209 210 212 215 216 214 215 217 214 212
243 219 170 190 219 214 219 248 229 175 196 267 245 203 197 212 232 251 257 219 264 271 267 120 129 247 277 211 195 179 195 203 198 205 204 199 201 201 201 199 197 196 193 193 194 193 190 188 187 186 185 186 188 191 191 191 193 194 194 194 195 196 196 195 196 198 200 199 199 199 199 198 196 198 204 209 212 213 215 218 219 216 215 215 213 211
213 178 180 194 199 204 219 242 224 167 166 249 215 148 175 202 216 238 226 200 230 235 296 7 100 129 282 220 189 176 192 208 212 216 210 205 207 203 201 200 197 196 193 191 193 195 193 189 190 190 188 188 190 190 190 191 193 194 194 194 194 195 196 195 196 198 198 199 199 200 202 204 204 204 206 210 213 216 218 221 221 219 216 214 212 210
222 170 192 188 180 199 216 230 218 163 186 251 229 147 171 187 202 216 186 193 258 99 244 293 89 109 289 252 162 166 189 209 216 218 212 208 209 205 202 201 199 197 194 193 194 195 196 192 192 191 189 189 190 190 191 192 193 194 195 193 193 194 195 196 196 197 198 199 200 201 202 206 208 209 210 211 213 216 219 220 221 219 216 214 211 210
251 202 188 160 167 206 225 232 213 170 209 249 225 197 206 139 165 186 143 154 58 83 225 252 142 125 284 278 144 165 199 213 217 218 215 211 210 208 204 200 199 198 196 197 196 196 198 196 193 191 190 189 190 191 191 192 193 193 194 193 192 194 195 197 197 197 198 199 201 201 203 206 208 209 211 212 212 215 218 218 218 217 216 214 211 210
278 269 176 146 181 209 224 232 207 192 214 236 153 215 225 74 57 59 82 101 88 277 252 252 186 142 276 278 177 183 205 208 210 214 215 215 212 208 203 200 198 198 197 197 197 197 199 198 194 189 190 189 190 191 191 192 193 193 193 193 193 194 196 197 197 198 198 199 202 203 204 207 208 207 210 210 210 213 214 214 215 215 215 214 211 210
323 342 280 269 314 43 238 244 226 206 210 202 96 131 163 291 31 52 348 51 117 247 262 259 234 130 186 267 223 215 219 212 208 212 212 213 211 205 201 201 200 196 196 195 196 197 196 196 192 188 189 190 188 189 190 191 193 193 193 193 193 194 196 197 198 199 199 199 202 204 206 210 209 208 210 211 211 212 212 212 213 214 214 214 213 212
333 339 325 315 6 32 11 273 303 228 171 149 133 103 118 282 5 157 269 190 173 236 240 232 231 126 218 248 227 223 228 221 215 219 220 215 210 205 201 201 198 195 195 195 195 196 195 194 191 187 188 188 188 188 190 191 192 193 193 194 193 194 196 198 199 200 200 200 202 205 207 211 211 211 213 214 214 214 213 212 212 213 214 215 214 214
301 294 350 360 357 11 25 173 313 339 164 165 172 146 143 151 138 201 229 191 206 235 228 216 190 177 261 308 315 262 245 236 224 224 224 216 210 207 204 199 197 196 195 195 195 196 197 195 192 190 188 187 189 189 190 191 192 192 194 194 194 195 197 198 199 200 200 201 203 204 207 210 212 213 215 216 217 215 213 213 213 215 216 217 217 216
142 237 356 24 328 340 7 217 206 205 194 189 176 142 145 161 155 193 204 171 195 214 271 251 188 151 165 317 348 348 320 302 281 265 247 226 216 205 201 199 197 199 196 194 197 198 199 195 193 192 189 189 190 190 190 191 192 193 194 195 195 196 197 197 198 199 200 202 203 204 207 210 213 215 217 218 218 217 214 214 215 217 218 221 221 220
114 216 291 311 268 344 1 313 246 171 204 265 146 118 127 188 153 145 175 172 166 126 8 257 203 193 177 169 8 10 3 7 7 347 333 288 250 209 197 200 197 199 198 196 198 200 200 195 193 193 191 190 191 190 191 191 192 193 194 195 196 197 197 198 199 200 201 202 203 204 206 209 213 216 218 218 219 219 217 216 217 218 221 223 225 224
91 240 306 336 320 2 3 313 353 79 194 263 59 112 247 245 133 117 206 289 75 95 249 238 24 335 306 12 9 8 3 6 7 359 355 336 304 232 207 205 200 200 198 197 198 199 199 194 193 194 192 191 191 191 193 193 193 194 194 196 197 198 198 198 200 201 202 203 203 205 207 209 212 215 218 218 219 220 220 220 220 221 223 226 228 228
98 232 318 10 339 327 339 304 19 42 39 101 75 295 290 235 129 109 115 1 49 114 252 31 80 27 10 346 351 5 8 4 1 355 351 350 346 290 228 211 204 205 201 200 200 197 196 193 193 195 194 193 192 193 194 195 195 195 195 196 197 198 199 199 201 202 203 203 203 205 206 209 211 214 217 219 220 221 221 221 222 223 225 227 230 231
32 286 305 8 331 302 340 356 6 6 11 81 165 303 26 126 173 59 126 141 97 161 236 32 77 59 31 338 343 6 8 1 0 356 352 354 354 335 275 222 206 207 204 202 201 198 195 193 194 195 195 195 194 194 195 195 195 195 197 198 198 199 200 201 201 203 204 205 205 205 207 209 212 214 217 219 220 222 223 223 224 225 227 229 231 232
4 60 280 322 336 317 356 28 13 336 346 23 42 8 21 121 163 58 153 152 131 168 187 46 23 17 341 320 345 6 4 4 7 2 357 355 351 346 330 264 210 202 203 203 200 199 198 195 194 195 195 196 195 194 195 194 195 196 197 199 200 201 201 201 202 203 204 205 206 207 208 209 212 214 217 219 221 222 224 225 226 227 229 230 231 232
13 61 297 305 343 11 27 10 359 345 358 21 32 25 5 343 355 34 31 66 115 146 166 125 65 330 296 318 346 3 6 11 15 10 5 359 353 354 351 333 247 205 202 202 200 199 199 197 195 195 196 195 195 194 194 194 195 197 198 199 201 201 201 202 203 204 205 206 207 208 208 209 211 214 216 219 221 223 224 225 226 228 229 229 231 232
22 55 22 327 2 41 345 332 7 45 62 63 55 32 9 358 14 69 57 349 41 99 148 136 127 258 288 336 341 359 13 9 15 18 14 9 4 2 359 353 334 234 208 206 206 201 198 197 195 193 193 193 193 192 193 195 196 197 198 200 201 201 201 203 203 204 205 206 207 209 209 210 211 213 215 218 221 223 224 224 225 227 227 228 230 232
68 79 52 347 341 348 292 360 46 60 79 79 61 29 16 28 31 74 120 319 353 30 353 108 116 226 260 349 341 347 11 6 14 21 21 20 14 11 9 5 2 354 314 238 224 214 207 204 199 194 191 191 192 191 192 194 196 198 200 200 201 202 203 204 205 205 206 207 208 210 210 211 212 213 214 217 220 223 224 225 225 225 226 227 229 230
42 54 30 339 325 344 323 342 46 45 54 61 36 20 18 15 357 259 184 229 22 27 354 34 104 229 278 343 348 343 2 12 16 18 24 26 20 19 18 14 12 12 14 17 13 352 274 223 210 202 196 194 192 192 192 195 197 199 200 200 201 202 204 204 205 206 206 207 209 210 210 211 212 213 214 216 219 222 225 226 226 225 226 227 228 229
27 39 49 36 16 13 359 329 349 22 36 29 356 8 10 2 356 346 33 43 70 66 25 67 149 248 296 339 358 359 8 20 17 13 24 31 25 23 24 20 17 17 19 21 21 23 23 12 323 244 220 208 200 195 193 195 197 199 200 201 202 203 204 204 205 206 206 207 208 209 210 212 212 213 215 216 218 221 224 226 227 227 227 227 227 228
68 45 76 90 96 146 153 331 312 337 1 352 341 356 5 8 8 12 29 26 61 62 35 105 195 286 309 355 9 4 7 14 13 11 17 27 28 27 28 26 22 21 21 21 21 24 25 22 15 5 347 287 228 210 202 198 198 200 201 202 203 204 204 204 205 206 206 207 208 209 211 211 212 214 215 217 219 220 222 224 226 228 229 229 229 229
98 53 73 110 122 164 183 210 260 301 336 326 332 343 351 3 10 33 46 22 247 356 342 175 166 324 331 358 8 4 6 11 12 10 10 17 23 24 28 29 25 24 25 22 21 23 24 23 18 12 8 2 348 287 223 211 207 204 204 205 205 205 205 204 205 205 206 207 208 209 211 212 213 214 216 218 220 221 222 223 224 227 229 231 232 232
91 52 59 99 121 166 190 225 263 306 314 292 321 332 330 343 6 37 24 261 141 29 309 235 60 354 335 353 7 5 2 9 15 12 8 13 17 17 26 29 24 22 24 23 22 22 22 21 16 12 10 6 5 5 354 264 222 212 209 210 209 206 206 205 205 206 207 208 209 210 212 213 214 215 216 218 220 222 224 224 224 226 227 230 232 234
99 88 69 90 97 183 216 272 309 347 283 263 286 304 320 335 343 343 266 250 187 143 245 266 322 6 349 356 9 13 4 9 20 16 11 17 18 16 24 30 25 19 18 19 19 18 19 18 15 12 10 6 4 5 5 1 337 244 217 213 211 209 208 206 205 207 208 209 211 212 213 214 215 216 217 218 220 222 224 225 226 226 227 228 230 233
101 85 9 86 68 335 306 319 340 356 341 317 276 261 275 281 272 263 249 242 233 225 238 264 288 78 37 359 2 15 10 9 22 26 26 26 20 17 23 28 25 19 15 14 13 13 14 15 12 10 9 9 7 2 359 358 356 349 286 221 211 209 208 206 205 207 209 211 213 215 215 216 216 216 217 218 220 222 224 226 227 227 228 228 229 231
68 11 360 63 43 321 310 345 358 354 330 306 274 252 245 247 252 251 243 239 242 246 250 253 214 162 25 355 357 7 7 16 23 26 33 31 22 20 23 23 21 17 12 8 6 7 8 10 9 7 6 5 3 2 359 353 349 350 348 301 220 210 206 205 206 207 209 213 215 215 216 216 217 217 217 219 220 222 223 225 226 227 229 230 230 231
70 19 357 52 35 306 315 354 347 338 323 297 277 250 233 240 260 252 253 264 258 258 276 290 191 224 334 344 357 2 9 25 24 19 25 26 23 26 23 17 17 16 10 3 359 1 5 6 4 1 358 355 355 357 357 354 349 345 346 342 305 230 208 204 205 207 209 212 214 215 215 215 216 217 218 219 220 221 223 224 225 227 228 230 231 232
97 83 36 69 56 299 314 348 349 350 351 325 255 185 136 131 95 360 344 335 339 321 289 266 206 310 344 347 359 2 10 28 27 19 21 16 18 27 24 16 14 14 10 360 352 356 358 358 358 354 348 347 348 349 350 351 350 345 339 339 335 303 227 208 205 207 210 212 213 214 215 215 216 217 219 220 221 222 222 222 224 225 227 229 231 232
65 85 114 109 93 286 302 348 8 356 330 261 242 170 85 101 148 171 244 297 329 356 70 118 62 19 5 359 360 351 354 25 38 29 25 17 12 17 16 13 12 12 8 355 348 354 353 348 349 347 345 344 341 342 345 346 348 347 341 339 341 337 294 226 210 208 209 210 212 213 213 214 215 217 220 221 222 222 222 222 224 225 226 228 229 230
59 73 114 95 108 260 320 18 21 308 251 260 298 331 38 70 115 140 173 257 309 350 39 76 35 6 360 351 349 338 328 342 60 47 32 22 12 6 3 2 4 8 3 347 342 351 350 345 343 341 343 341 337 339 343 344 346 346 343 342 344 344 338 305 237 218 212 210 211 212 212 213 214 216 219 220 220 221 221 222 224 225 226 226 227 228
101 111 128 98 123 297 19 72 176 262 272 289 303 309 356 44 65 83 330 260 259 342 35 76 352 343 344 329 333 328 308 292 167 69 38 26 14 3 357 353 351 354 350 341 342 344 343 343 340 337 337 333 332 336 340 341 344 342 336 338 342 343 346 344 320 260 230 221 216 213 212 213 214 216 218 218 218 219 220 222 223 224 225 225 226 228
118 125 96 63 170 132 139 212 255 322 318 308 308 333 29 29 19 48 288 259 232 222 260 214 292 319 323 322 330 326 309 286 205 145 35 25 13 358 348 343 341 338 334 334 337 337 336 339 339 335 332 328 328 332 336 338 341 337 329 330 336 343 349 350 345 335 296 257 237 226 219 215 214 216 217 216 217 218 220 222 223 224 224 223 224 226
96 124 130 136 175 121 141 264 305 327 298 279 296 339 1 352 323 314 291 268 236 251 286 272 298 315 323 330 332 331 330 311 201 211 7 12 3 349 341 335 332 333 332 331 332 331 331 336 338 333 328 326 325 327 333 338 339 332 321 318 328 342 350 349 345 343 336 321 291 260 241 229 222 219 217 217 217 219 221 222 223 224 223 222 224 225
56 67 103 110 84 103 143 226 246 232 242 251 279 314 327 331 331 321 288 274 274 301 316 327 317 324 340 343 346 357 7 355 266 280 345 350 344 341 334 325 325 329 331 332 332 327 323 326 331 329 327 326 324 327 333 336 333 324 313 311 324 338 344 343 340 334 326 321 311 293 272 251 238 229 222 220 220 221 221 222 223 223 223 223 224 225
38 33 63 96 180 202 200 232 241 230 241 253 278 302 304 317 359 353 280 283 342 322 318 322 313 320 348 4 9 25 22 302 281 295 320 325 324 327 322 317 319 322 325 331 332 324 318 320 325 326 325 323 322 326 332 332 327 320 313 313 320 330 334 333 330 325 319 313 307 298 287 270 254 242 233 228 226 225 224 223 223 222 222 223 224 225
12 24 91 141 200 220 223 240 260 255 233 229 263 290 300 321 47 198 241 241 311 303 304 305 299 308 336 357 353 274 244 259 275 291 303 309 311 313 313 313 315 317 319 324 327 324 318 316 320 321 317 316 319 324 330 331 326 320 317 315 316 322 327 327 323 320 317 314 309 300 290 280 267 253 243 237 233 230 227 225 224 222 221 222 222 223
23 40 176 158 178 227 228 238 273 277 232 199 262 284 284 247 193 221 249 233 228 270 292 297 290 304 319 303 265 243 254 266 277 285 294 301 301 302 305 309 313 317 319 319 321 323 320 316 316 317 315 314 317 321 327 329 323 316 315 313 313 319 323 323 321 320 317 313 309 301 292 283 273 262 252 243 236 231 229 227 224 223 222 221 221 221
165 148 222 198 177 189 212 233 262 266 206 166 341 323 204 189 215 257 301 297 246 271 305 304 294 306 313 301 280 263 266 273 280 286 288 289 289 293 300 307 308 310 314 316 316 318 319 316 314 312 310 311 313 318 324 325 318 312 311 309 313 321 322 320 320 319 316 314 310 302 294 286 276 267 258 250 240 233 230 227 223 222 221 220 219 220
182 159 189 222 195 150 171 221 232 212 190 178 138 177 221 243 252 233 286 299 290 291 301 300 295 295 295 297 295 287 274 266 272 283 288 287 286 291 297 303 305 306 308 310 311 313 315 313 311 309 307 306 308 314 321 324 320 314 307 307 315 322 321 317 317 316 313 312 310 304 296 287 277 270 264 258 247 236 231 227 222 220 220 218 218 218
220 185 168 196 209 181 194 221 226 212 205 199 184 201 240 269 265 209 237 285 276 269 281 290 291 287 285 290 294 293 285 268 267 278 288 290 290 291 294 297 300 303 303 305 307 311 313 311 309 309 306 304 306 312 318 323 322 314 307 308 316 321 319 316 313 309 307 307 305 302 296 286 277 271 266 261 252 239 231 225 220 217 216 216 216 217
226 169 132 147 252 262 255 246 242 244 239 222 212 219 232 243 233 215 241 271 260 263 275 275 273 280 284 286 290 293 291 284 277 277 282 288 289 289 291 293 296 299 300 302 304 307 309 309 308 307 306 305 306 310 316 322 322 315 310 310 312 316 318 315 307 301 301 303 301 299 293 285 281 278 270 262 253 241 232 225 219 215 214 213 214 216
256 153 144 169 209 269 277 258 231 223 217 208 225 254 254 237 227 222 234 253 259 264 269 272 273 277 279 281 285 290 291 290 288 283 280 283 286 288 289 290 293 296 296 297 301 303 304 304 303 304 304 304 305 308 314 318 318 316 314 311 310 313 316 311 301 297 298 301 302 297 291 286 286 284 277 266 254 241 231 223 218 215 212 211 212 216
206 156 169 199 190 203 254 259 251 250 248 235 236 253 253 243 243 246 243 249 265 271 270 272 273 272 275 280 282 286 289 289 287 283 281 280 280 283 286 287 289 292 294 295 298 299 298 296 297 299 300 300 302 305 309 312 314 315 315 312 309 312 314 308 297 293 295 300 302 297 290 288 288 287 281 271 257 240 227 219 215 213 213 213 213 214
145 150 174 193 202 257 279 272 266 280 283 268 247 238 233 230 242 255 261 264 272 276 276 276 275 273 277 281 281 282 284 285 284 280 279 278 277 278 281 284 286 289 291 293 295 294 292 291 291 293 294 295 298 301 303 306 310 312 313 312 309 310 313 308 298 293 294 300 302 297 290 287 288 288 284 275 260 243 229 220 215 214 215 217 218 218
154 177 181 156 182 254 262 245 212 236 270 263 243 234 233 233 239 249 261 271 274 275 279 284 285 284 280 278 278 277 278 281 283 280 275 271 273 276 277 279 283 286 288 290 291 289 288 287 287 288 289 291 294 296 299 303 307 308 309 310 309 309 310 306 298 293 292 294 296 292 287 285 287 288 286 278 263 246 233 225 221 219 218 220 222 223
185 190 179 177 202 230 237 222 191 193 240 248 238 235 239 240 235 239 252 261 265 270 276 283 289 290 287 282 279 274 272 277 281 281 277 273 274 276 276 276 277 280 283 285 285 284 284 284 285 284 283 286 289 291 295 301 304 305 307 309 309 308 305 300 293 288 286 286 285 283 281 282 284 286 286 280 264 244 231 224 221 220 221 222 224 224
Height
762 775 780 778 778 774 772 772 772 774 775 778 781 784 785 786 784 775 770 764 763 777 782 776 777 776 774 773 771 771 772 775 777 778 780 780 780 780 781 781 781 782 782 782 785 788 790 793 795 798 801 804 806 809 811 813 815 817 818 821 822 824 826 828 829 831 833 835 837 838 840 841 843 844 845 846 848 848 850 851 852 853 853 854 855 856
765 779 780 772 772 769 768 769 769 772 774 776 781 784 786 788 783 772 769 764 760 774 778 770 775 774 770 771 768 767 771 773 773 774 776 777 778 779 779 780 780 780 781 782 784 786 788 791 793 796 799 801 804 806 809 811 813 815 817 819 821 823 825 826 828 830 831 833 835 837 838 840 842 843 844 845 846 848 849 850 851 852 853 854 855 856
775 779 774 767 767 768 768 768 770 773 774 776 780 785 789 786 781 774 767 761 761 773 773 767 774 774 767 768 766 764 766 767 766 767 770 772 776 777 777 778 779 780 781 781 782 783 786 788 791 794 796 799 802 804 807 809 812 814 815 817 819 821 823 825 827 828 830 832 834 836 838 840 841 843 844 845 846 847 848 850 851 852 853 854 854 855
783 776 766 764 766 769 770 769 771 775 774 777 779 785 789 783 783 783 771 763 763 767 766 764 771 773 769 770 769 764 762 764 765 766 768 769 772 772 771 773 776 779 780 780 781 781 783 786 788 791 793 796 800 802 805 807 810 811 813 815 817 819 821 823 825 827 830 832 835 837 838 840 841 843 844 845 846 847 848 849 850 851 852 853 854 855
778 767 760 763 766 769 772 771 773 778 779 777 775 780 784 780 781 782 773 767 766 764 762 766 779 782 774 775 774 767 764 766 766 768 769 769 769 770 770 772 773 775 777 778 779 779 780 782 785 788 791 794 797 800 802 804 807 809 811 813 816 818 820 822 824 826 829 832 834 837 839 840 841 842 843 844 845 846 847 848 849 850 851 852 854 855
772 761 758 765 768 769 774 774 773 777 782 780 771 770 775 776 776 776 774 774 777 776 765 766 790 795 779 776 776 771 770 770 768 768 770 769 768 770 771 772 772 773 774 775 776 777 778 780 783 786 788 791 794 796 799 801 804 807 809 811 814 817 819 821 823 825 828 830 832 834 836 838 839 840 841 842 843 844 846 847 848 850 851 852 853 854
766 759 759 765 768 770 774 776 771 771 783 785 768 759 766 771 773 774 775 779 784 783 767 761 783 796 787 780 776 772 773 773 770 769 769 769 768 768 769 769 770 771 772 773 774 775 777 779 781 783 785 788 791 793 797 800 802 805 807 810 812 815 817 819 821 824 826 828 831 832 834 835 836 837 838 840 842 843 845 846 848 849 850 851 853 854
760 760 763 765 767 772 776 776 767 766 781 779 758 755 764 768 772 772 772 778 777 773 769 764 772 788 791 780 771 771 777 777 774 771 769 767 766 765 766 766 766 767 769 771 773 773 775 776 778 780 783 785 788 792 795 798 800 803 805 807 810 813 816 818 820 822 824 826 829 831 832 834 835 836 837 840 841 843 845 846 847 848 849 851 852 853
756 760 763 763 769 774 772 767 759 763 774 765 751 756 761 762 766 766 767 775 772 775 783 775 771 787 791 778 769 771 779 781 775 770 766 763 762 762 762 763 763 764 765 767 769 770 771 773 776 778 781 784 788 790 793 795 798 801 803 806 808 811 814 816 818 820 822 825 827 829 831 833 834 836 838 839 841 842 844 845 846 847 849 850 851 852
755 754 754 758 768 769 762 755 754 762 765 753 749 756 758 760 763 763 768 771 772 783 788 777 773 786 791 783 777 779 780 778 770 763 761 758 758 758 759 761 761 762 763 763 765 766 768 770 774 777 780 783 786 788 791 794 796 799 802 804 807 809 812 815 817 819 821 823 826 828 830 831 833 835 837 839 840 841 842 844 845 846 848 849 850 851
754 748 748 753 757 755 751 749 749 753 752 747 751 757 760 765 764 766 771 769 779 792 784 771 772 779 788 787 780 774 767 761 760 760 758 755 755 755 756 758 758 759 760 761 763 764 766 769 772 775 779 781 784 787 790 792 795 797 800 802 804 807 810 813 815 817 819 821 824 826 828 830 832 833 835 837 838 839 841 842 843 845 846 848 849 850
755 752 753 751 748 748 749 748 746 745 746 751 757 760 767 773 772 775 777 776 792 801 782 769 769 775 786 784 772 761 751 747 753 755 753 751 750 751 752 753 754 755 757 759 761 762 764 767 770 773 775 778 782 785 787 790 792 795 797 800 802 805 807 810 813 815 817 819 822 824 827 828 830 832 833 835 836 837 839 840 842 843 845 846 848 849
760 758 757 752 748 750 754 754 749 747 749 756 762 765 777 788 789 792 792 791 796 795 781 771 770 776 779 768 759 756 748 746 747 745 745 746 747 748 748 749 750 752 755 756 758 760 761 763 765 768 772 775 779 781 784 787 789 792 795 797 800 802 805 808 811 813 815 817 819 822 824 827 829 830 832 833 834 836 837 838 840 841 843 844 846 847
767 763 758 756 753 752 757 759 758 755 754 758 762 766 779 793 801 806 806 803 799 789 779 774 773 778 777 766 761 758 749 742 739 737 738 740 742 743 743 745 747 748 750 753 754 756 757 758 760 764 768 771 775 777 781 784 786 790 792 794 797 799 802 805 808 811 813 814 817 819 822 825 827 829 830 831 833 834 836 837 838 840 841 843 844 845
780 776 766 764 763 759 759 760 760 759 755 754 754 757 767 776 788 798 799 797 796 788 780 776 774 778 784 781 767 757 751 744 741 739 736 735 736 737 740 743 746 747 747 749 750 751 752 754 757 760 764 768 771 774 778 781 784 786 789 791 794 796 799 802 805 808 810 812 814 817 820 823 825 827 828 830 831 833 834 835 837 838 840 841 842 843
788 783 769 764 763 761 763 759 754 756 759 755 751 756 763 763 767 779 785 783 783 787 784 777 773 771 775 773 759 754 753 749 748 746 743 742 738 737 740 741 742 744 744 745 746 747 747 750 754 757 760 764 768 771 774 777 780 783 786 789 791 794 797 800 802 805 807 809 812 815 817 820 823 825 827 828 830 831 832 834 835 837 838 839 841 843
790 783 771 766 762 760 763 759 752 755 760 757 758 763 763 760 760 769 782 780 778 789 790 781 780 778 772 766 760 760 758 753 754 752 750 749 743 740 740 739 738 738 739 740 740 742 744 746 751 754 757 761 764 768 770 773 776 779 783 786 789 792 795 797 800 802 805 807 809 812 814 817 820 822 824 826 827 829 830 832 834 835 837 838 840 842
790 784 777 774 769 761 758 757 753 752 755 761 768 766 759 758 759 764 780 789 791 796 790 786 796 798 792 785 774 769 767 764 761 758 755 753 748 744 739 736 736 735 734 735 736 738 741 744 748 751 754 757 760 763 766 770 774 777 780 783 786 790 792 795 798 800 803 805 807 809 811 814 817 819 822 823 825 827 829 830 832 833 835 836 838 840
790 787 782 779 777 767 757 758 761 757 754 760 765 762 761 769 770 768 779 791 799 802 793 791 802 803 803 799 785 779 779 775 770 765 761 757 753 749 740 733 733 733 734 735 735 737 739 741 744 747 750 754 757 760 764 768 772 776 779 781 784 786 789 792 796 798 801 803 805 807 808 811 814 817 819 821 824 826 827 828 829 831 833 834 836 838
791 790 786 779 777 773 767 772 783 780 766 760 764 768 771 775 775 774 778 782 789 799 799 799 807 807 800 794 786 784 784 779 776 773 768 764 759 753 744 734 730 731 732 732 733 734 734 736 739 743 746 750 754 758 762 766 770 773 776 779 782 785 788 791 793 795 798 800 803 805 807 809 812 815 817 820 822 824 825 826 827 829 830 832 834 836
792 795 794 785 779 781 785 790 795 794 785 781 786 792 792 787 781 777 780 783 785 792 797 802 817 815 795 784 783 782 782 780 779 777 773 769 762 754 747 737 729 727 727 727 728 729 730 732 736 740 744 748 752 757 760 764 767 770 774 777 779 783 786 788 791 793 795 798 800 802 804 807 809 812 815 818 821 822 823 824 825 827 828 830 832 834
797 802 803 798 793 795 798 795 791 792 793 795 800 805 805 801 797 792 791 792 790 792 795 803 820 817 790 780 783 780 781 781 778 777 775 770 764 757 750 742 732 726 725 725 726 726 727 729 732 737 741 746 750 754 757 761 764 768 771 774 777 780 783 785 788 790 793 796 798 800 802 804 807 810 813 816 818 820 821 822 823 825 826 828 830 832
798 805 807 806 806 805 801 795 793 793 791 793 799 805 805 804 809 811 807 803 800 799 797 800 813 811 788 780 782 780 781 781 778 777 775 771 767 761 754 748 740 733 729 728 729 729 730 731 733 736 739 743 746 750 753 757 760 764 766 770 774 777 779 782 785 788 791 793 796 798 800 803 805 807 810 813 816 818 819 821 822 823 824 826 827 829
797 809 812 808 808 808 801 794 793 793 793 800 805 806 806 806 810 812 809 807 808 812 810 807 811 806 787 780 782 781 781 781 778 776 774 772 769 763 759 755 750 745 739 735 735 735 735 736 738 740 740 741 743 746 750 753 756 760 763 766 770 773 776 779 783 786 789 791 793 796 799 801 803 805 807 809 812 814 817 819 821 822 823 824 825 827
803 816 816 812 813 814 810 803 800 801 806 813 814 811 810 808 806 806 805 806 811 819 820 815 814 806 790 783 784 783 783 783 781 777 774 773 771 767 764 761 758 755 750 747 744 742 742 744 744 744 744 743 743 744 746 749 753 756 759 763 766 769 773 777 780 783 786 789 791 794 795 797 800 802 803 805 808 810 813 816 819 820 821 822 823 824
808 819 819 819 824 825 825 826 823 823 823 821 819 816 812 810 809 810 813 814 816 822 822 818 817 807 792 788 789 787 786 786 784 779 775 774 773 771 768 767 765 763 760 758 755 752 751 751 750 750 749 749 748 748 748 749 751 753 757 760 763 767 771 774 777 780 783 786 788 790 792 794 796 798 800 802 804 806 809 812 815 818 819 821 822 823
812 822 823 826 831 831 833 835 830 829 831 827 824 820 816 814 813 814 819 822 822 822 819 817 818 810 800 798 797 793 792 792 789 785 781 778 776 774 773 772 771 770 768 766 763 760 758 756 757 756 754 753 752 752 752 752 753 754 757 759 762 765 768 771 775 778 780 783 784 786 788 790 792 794 796 799 802 804 807 809 811 814 816 818 820 821
816 826 827 828 832 832 832 832 828 828 831 830 827 823 819 817 816 817 821 820 820 823 818 814 816 816 811 806 803 800 799 798 796 793 789 785 783 780 778 776 775 773 771 770 768 766 764 763 763 761 759 758 756 755 754 754 755 756 758 760 762 765 767 770 773 775 777 780 781 783 784 786 789 791 793 796 799 802 804 806 808 810 812 815 817 818
819 828 828 828 832 832 829 828 828 829 829 828 827 825 823 821 820 821 821 815 816 822 818 811 812 817 817 811 805 804 803 801 801 799 795 791 788 786 783 780 780 778 776 775 774 772 770 769 767 766 764 763 761 759 757 756 756 756 757 758 760 763 765 768 771 773 775 777 778 779 781 784 787 789 791 794 796 798 800 803 805 807 809 811 813 815
820 826 826 827 831 831 830 829 827 828 829 829 828 826 824 822 819 819 817 812 812 814 811 808 811 816 818 813 806 804 804 803 803 801 798 796 793 791 788 786 786 784 782 781 779 778 775 773 771 770 768 766 764 763 761 759 758 757 756 756 758 760 763 766 768 770 773 774 775 777 780 782 784 787 789 791 792 794 797 799 802 805 806 808 810 812
821 826 826 826 830 831 830 829 828 829 831 831 829 825 822 821 818 816 815 811 809 809 807 808 811 813 815 812 808 806 804 803 804 803 802 801 799 796 793 792 790 789 787 785 784 782 779 775 774 772 770 769 768 766 764 763 761 759 757 756 756 757 759 761 764 766 768 770 772 775 778 780 782 784 786 787 789 791 793 796 799 801 803 805 807 809
822 827 827 828 833 832 829 829 829 827 826 826 826 823 820 819 818 816 815 812 811 809 808 808 811 814 816 813 810 808 806 806 807 805 804 804 802 799 798 797 795 792 790 789 787 785 782 778 777 775 774 773 771 769 767 765 763 760 758 756 756 756 756 757 759 761 763 765 768 771 774 776 778 780 782 783 785 787 790 793 795 798 800 802 804 806
824 827 830 834 837 835 831 829 827 825 824 823 823 822 820 819 818 816 815 815 815 814 813 813 815 818 818 815 813 812 810 810 809 807 806 806 804 802 802 801 798 794 793 793 791 788 785 782 780 779 777 775 773 772 770 768 765 763 760 758 756 755 754 754 754 756 758 761 765 768 770 773 775 777 778 780 782 784 787 789 791 793 795 797 800 803
827 828 832 835 838 838 833 829 828 830 829 822 817 817 819 819 818 816 816 816 818 818 817 818 820 821 819 818 818 816 813 812 811 809 807 806 805 804 803 802 800 796 795 795 794 791 787 784 782 781 779 776 775 773 771 769 767 764 761 759 756 754 754 753 752 753 755 758 761 763 766 769 771 773 775 777 780 782 785 786 788 789 791 794 796 799
831 832 834 836 839 840 836 834 836 835 829 821 815 814 815 817 817 818 819 820 821 820 818 819 822 822 821 820 819 817 815 812 811 810 808 807 806 804 804 802 800 798 798 798 796 793 790 786 784 782 779 777 776 774 771 769 767 764 762 759 757 755 754 753 752 753 754 755 757 759 762 764 767 769 771 773 776 779 781 782 784 785 787 790 792 793
833 835 836 838 840 842 842 843 840 831 824 819 816 814 814 815 818 821 822 821 822 822 821 821 822 822 821 820 818 817 815 811 810 811 809 808 807 806 805 804 801 800 801 800 797 794 791 789 786 783 781 779 778 776 773 770 768 766 763 761 758 756 754 753 753 752 753 754 755 756 758 760 762 764 766 769 772 774 776 778 779 781 783 786 787 789
834 836 838 840 842 842 846 846 839 833 829 823 818 819 821 820 821 823 824 821 821 823 822 822 822 821 820 819 817 816 813 810 811 812 809 808 808 807 807 806 804 802 801 798 796 794 792 790 787 784 783 781 780 778 775 772 768 767 765 762 759 756 754 754 753 752 753 753 755 756 756 757 758 760 762 765 768 769 771 773 774 777 780 782 784 785
834 836 837 840 841 841 845 847 845 844 840 830 825 826 826 825 825 826 826 823 821 822 822 822 822 821 820 819 818 815 811 808 809 810 809 809 809 808 807 806 805 803 801 797 795 793 792 790 787 785 784 782 781 780 777 773 769 768 767 764 760 757 755 754 753 753 752 752 754 755 756 757 757 758 759 762 763 765 767 769 771 773 776 778 779 780
837 838 838 841 843 844 847 849 849 847 839 831 828 828 827 827 826 827 828 825 821 822 823 822 821 821 820 820 818 816 814 811 811 811 810 810 809 808 807 805 803 802 800 797 794 792 791 790 787 786 784 782 780 779 776 773 771 770 769 765 760 756 754 753 753 753 752 752 752 753 754 755 755 756 757 758 759 761 763 765 767 769 771 773 774 776
839 841 843 847 848 847 847 849 846 840 833 830 830 829 828 826 825 829 832 828 823 824 824 822 822 821 821 820 819 819 819 818 816 814 811 810 809 808 807 805 802 800 798 796 795 793 791 789 786 784 783 781 780 778 776 774 772 770 769 765 760 755 753 753 753 752 752 751 750 750 751 751 752 753 755 755 756 758 760 761 763 765 767 768 770 771
847 848 848 850 851 849 847 848 844 835 830 830 830 828 827 826 827 832 832 827 826 826 823 822 823 821 820 821 820 820 820 817 815 813 810 809 808 807 806 805 802 800 798 796 795 793 791 788 785 783 782 781 781 778 776 773 771 768 766 764 760 756 753 752 751 750 750 749 748 748 748 748 749 750 751 752 753 755 757 758 760 761 762 764 765 767
849 851 850 850 851 851 848 847 844 836 829 828 829 826 826 827 829 829 827 826 828 826 822 822 822 820 820 821 820 819 818 815 813 811 810 809 807 805 804 803 801 799 797 795 793 792 790 787 784 782 780 780 780 778 776 774 771 768 765 763 759 755 752 750 749 748 748 747 746 746 745 745 746 746 747 748 749 751 752 753 755 756 758 760 761 762
842 846 850 849 847 850 852 851 847 837 829 827 827 825 825 826 826 826 826 827 826 824 823 823 822 820 820 820 818 818 816 814 812 810 808 807 806 803 802 801 800 798 796 794 791 790 788 786 783 781 780 779 778 776 774 772 770 767 764 761 757 753 751 749 747 746 746 745 744 743 743 742 742 742 744 745 745 746 746 747 750 751 753 755 756 757
839 842 848 846 841 845 851 847 837 829 825 827 827 826 825 825 824 825 826 826 824 823 824 823 821 821 820 818 817 816 815 814 812 809 807 805 804 802 800 798 798 797 795 793 790 788 787 785 782 780 779 777 775 773 771 768 766 764 762 759 755 751 749 748 746 745 744 743 742 741 740 740 739 739 740 741 741 741 741 742 744 746 747 749 751 752
833 835 838 837 835 837 836 830 825 823 825 826 825 824 824 823 822 824 824 824 824 823 822 822 821 820 818 817 815 813 812 812 810 808 806 803 801 801 799 796 795 794 792 791 789 787 785 782 779 777 775 773 771 768 766 764 762 760 759 757 753 750 748 746 744 743 742 741 739 738 737 737 737 736 736 737 737 737 736 738 739 740 742 744 746 747
830 832 833 833 833 833 827 822 823 824 824 823 822 822 822 822 821 822 822 822 822 821 820 820 819 817 816 816 814 811 809 809 808 806 804 802 799 798 797 794 792 791 790 789 787 786 783 780 777 773 770 768 767 764 760 759 758 757 755 754 752 750 746 744 743 741 740 738 737 735 734 733 733 732 732 732 732 732 731 732 734 735 737 739 741 742
830 831 832 832 834 832 824 819 820 821 820 820 821 820 820 820 819 819 820 820 819 818 818 817 815 815 814 813 812 810 806 805 805 804 802 800 797 795 794 792 789 788 787 786 785 784 782 779 776 771 767 764 761 759 756 754 753 753 752 750 749 747 744 742 741 739 737 735 733 732 730 729 728 728 727 727 727 727 726 727 729 731 732 734 735 736
828 829 831 832 833 831 823 817 819 820 819 819 819 819 818 818 817 817 817 817 816 815 815 813 813 812 811 810 810 808 804 802 802 801 799 797 794 792 790 789 787 785 783 782 782 781 780 777 775 771 766 761 757 755 754 752 750 750 749 747 746 744 741 738 737 735 733 731 729 727 726 724 724 723 723 723 722 722 721 722 723 725 726 727 728 729
826 828 829 829 830 829 823 817 818 820 818 817 818 817 816 815 815 815 814 814 814 813 812 811 810 809 809 808 807 806 802 798 798 797 796 794 791 789 788 786 784 782 780 778 778 778 776 775 773 769 765 760 756 753 751 750 749 748 746 745 743 740 737 734 733 731 729 726 724 723 721 720 720 719 719 718 717 716 715 715 716 718 718 719 720 721
825 825 827 828 829 826 819 813 814 815 814 813 813 813 813 813 813 813 812 812 811 810 809 808 807 805 805 804 804 803 800 795 793 794 793 790 788 787 785 783 782 779 776 775 775 774 773 772 770 767 763 759 755 753 750 747 746 746 745 743 740 737 734 731 730 729 725 722 720 719 718 717 716 716 715 714 712 711 710 710 710 711 711 712 713 713
816 815 818 821 819 815 809 808 811 812 810 809 810 810 810 810 810 811 810 810 809 808 807 806 804 802 801 800 799 799 796 792 790 790 788 786 785 784 781 780 779 776 773 772 771 770 769 768 767 766 763 758 755 753 749 746 744 743 743 740 737 734 731 730 729 727 723 720 718 716 715 715 713 713 711 710 708 706 706 705 706 706 706 707 708 709